Back to catalog

CZ-6A DEB

AlivePO
NORAD 61276·DEBRIS·🇨🇳 China

Launched Aug 6, 2024 from Taiyuan Satellite Launch Center

Loading…

Next Passes (next 24 hours)

TLE

FreshSource: Space-Track

Epoch: Sep 13, 2026, 23:20 UTC

1 61276U 24140SM  26256.97290087  .00000880  00000-0  35397-3 0  9992
2 61276  89.0007 264.1856 0022439 264.5334  95.3300 14.27175867106675

Track CZ-6A DEB in real time with AllMySat

Download on the App Store